• In Hungary
  • List of Countries
  • For 7 days
  • Water Temperature
  • Satellite Maps
  • Weather Map
  • News
  • Weather Widgets
  • user-avatar
    Login

    Hourly Weather Blagoevgrad

    Today, 24 September, Monday

    Time Temperature Precipitation Wind Pressure Humidity
    00:00 +20°C° 0 mm 1 mps 722 mmHg 55%
    01:00 +20°C° 0 mm 1 mps 722 mmHg 56%
    02:00 +19°C° 0 mm 2 mps 721 mmHg 57%
    03:00 +18°C° 0 mm 2 mps 721 mmHg 59%
    04:00 +18°C° 0 mm 2 mps 721 mmHg 60%
    05:00 +18°C° 0 mm 2 mps 720 mmHg 62%
    06:00 +19°C° 0 mm 2 mps 720 mmHg 59%
    07:00 +22°C° 0 mm 1 mps 720 mmHg 55%
    08:00 +23°C° 0 mm 1 mps 720 mmHg 52%
    09:00 +25°C° 0 mm 2 mps 720 mmHg 46%
    10:00 +28°C° 0 mm 2 mps 720 mmHg 39%
    11:00 +30°C° 0 mm 3 mps 720 mmHg 33%
    12:00 +31°C° 0 mm 3 mps 720 mmHg 32%
    13:00 +31°C° 0 mm 3 mps 720 mmHg 30%
    14:00 +33°C° 0 mm 3 mps 720 mmHg 28%
    15:00 +29°C° 0 mm 4 mps 721 mmHg 34%
    16:00 +27°C° 0 mm 5 mps 721 mmHg 40%
    17:00 +25°C° 0 mm 5 mps 721 mmHg 46%
    18:00 +21°C° 0 mm 5 mps 722 mmHg 54%
    19:00 +18°C° 0 mm 4 mps 723 mmHg 61%
    20:00 +15°C° 0 mm 4 mps 724 mmHg 68%
    21:00 +14°C° 0 mm 4 mps 724 mmHg 69%
    22:00 +13°C° 0 mm 4 mps 725 mmHg 70%
    23:00 +12°C° 0 mm 4 mps 726 mmHg 72%

    Tomorrow, 25 September, Tuesday

    Time Temperature Precipitation Wind Pressure Humidity
    00:00 +12°C° 0 mm 3 mps 726 mmHg 72%
    01:00 +11°C° 0 mm 3 mps 726 mmHg 73%
    02:00 +10°C° 0 mm 3 mps 726 mmHg 74%
    03:00 +10°C° 0 mm 3 mps 726 mmHg 75%
    04:00 +10°C° 0 mm 3 mps 727 mmHg 76%
    05:00 +9°C° 0 mm 3 mps 727 mmHg 76%
    06:00 +10°C° 0 mm 3 mps 728 mmHg 71%
    07:00 +10°C° 0 mm 3 mps 728 mmHg 66%
    08:00 +11°C° 0 mm 3 mps 729 mmHg 61%
    09:00 +13°C° 0 mm 4 mps 729 mmHg 51%
    10:00 +14°C° 0 mm 4 mps 729 mmHg 41%
    11:00 +17°C° 0 mm 4 mps 729 mmHg 30%
    12:00 +18°C° 0 mm 4 mps 729 mmHg 28%
    13:00 +19°C° 0 mm 4 mps 728 mmHg 26%
    14:00 +20°C° 0 mm 4 mps 728 mmHg 24%
    15:00 +19°C° 0 mm 4 mps 728 mmHg 25%
    16:00 +18°C° 0 mm 4 mps 728 mmHg 27%
    17:00 +17°C° 0 mm 4 mps 728 mmHg 29%
    18:00 +14°C° 0 mm 4 mps 728 mmHg 34%
    19:00 +12°C° 0 mm 3 mps 729 mmHg 39%
    20:00 +10°C° 0 mm 2 mps 729 mmHg 44%
    21:00 +9°C° 0 mm 2 mps 730 mmHg 46%
    22:00 +8°C° 0 mm 2 mps 730 mmHg 48%
    23:00 +7°C° 0 mm 2 mps 730 mmHg 51%

    Day after tomorrow, 26 September, Wednesday

    Time Temperature Precipitation Wind Pressure Humidity
    00:00 +6°C° 0 mm 2 mps 730 mmHg 52%
    01:00 +6°C° 0 mm 2 mps 730 mmHg 54%
    02:00 +6°C° 0 mm 2 mps 731 mmHg 55%
    03:00 +5°C° 0 mm 2 mps 731 mmHg 57%
    04:00 +5°C° 0 mm 2 mps 731 mmHg 58%
    05:00 +5°C° 0 mm 2 mps 731 mmHg 60%
    06:00 +6°C° 0 mm 2 mps 731 mmHg 56%
    07:00 +7°C° 0 mm 2 mps 732 mmHg 51%
    08:00 +9°C° 0 mm 2 mps 732 mmHg 47%
    09:00 +10°C° 0 mm 3 mps 732 mmHg 42%
    10:00 +12°C° 0 mm 3 mps 732 mmHg 37%
    11:00 +14°C° 0 mm 3 mps 732 mmHg 33%
    12:00 +15°C° 0 mm 4 mps 732 mmHg 32%
    13:00 +15°C° 0 mm 4 mps 731 mmHg 31%
    14:00 +17°C° 0 mm 4 mps 731 mmHg 30%
    15:00 +15°C° 0 mm 4 mps 730 mmHg 31%
    16:00 +14°C° 0 mm 4 mps 730 mmHg 33%
    17:00 +14°C° 0 mm 5 mps 730 mmHg 34%
    18:00 +12°C° 0 mm 4 mps 730 mmHg 41%
    19:00 +9°C° 0 mm 3 mps 731 mmHg 48%
    20:00 +7°C° 0 mm 3 mps 731 mmHg 56%
    21:00 +6°C° 0 mm 2 mps 731 mmHg 59%
    22:00 +6°C° 0 mm 2 mps 731 mmHg 62%
    23:00 +5°C° 0 mm 2 mps 732 mmHg 65%

    27 September, Thursday

    Time Temperature Precipitation Wind Pressure Humidity
    00:00 +5°C° 0 mm 2 mps 732 mmHg 65%
    01:00 +4°C° 0 mm 2 mps 731 mmHg 65%
    02:00 +4°C° 0 mm 2 mps 731 mmHg 65%
    03:00 +4°C° 0 mm 2 mps 731 mmHg 64%
    04:00 +4°C° 0 mm 2 mps 731 mmHg 64%
    05:00 +3°C° 0 mm 2 mps 731 mmHg 64%
    06:00 +5°C° 0 mm 2 mps 731 mmHg 57%
    07:00 +7°C° 0 mm 3 mps 731 mmHg 51%
    08:00 +8°C° 0 mm 3 mps 731 mmHg 45%
    09:00 +11°C° 0 mm 3 mps 730 mmHg 37%
    10:00 +13°C° 0 mm 4 mps 730 mmHg 30%
    11:00 +15°C° 0 mm 4 mps 730 mmHg 23%
    12:00 +16°C° 0 mm 5 mps 729 mmHg 21%
    13:00 +19°C° 0 mm 5 mps 728 mmHg 19%
    14:00 +20°C° 0 mm 5 mps 727 mmHg 17%
    15:00 +19°C° 0 mm 5 mps 727 mmHg 19%
    16:00 +17°C° 0 mm 5 mps 727 mmHg 20%
    17:00 +18°C° 0 mm 4 mps 726 mmHg 22%
    18:00 +14°C° 0 mm 4 mps 726 mmHg 28%
    19:00 +11°C° 0 mm 3 mps 726 mmHg 34%
    20:00 +8°C° 0 mm 2 mps 727 mmHg 40%
    21:00 +8°C° 0 mm 2 mps 727 mmHg 41%
    22:00 +7°C° 0 mm 2 mps 727 mmHg 42%
    23:00 +7°C° 0 mm 2 mps 727 mmHg 43%

    28 September, Friday

    Time Temperature Precipitation Wind Pressure Humidity
    00:00 +7°C° 0 mm 2 mps 726 mmHg 42%
    01:00 +7°C° 0 mm 2 mps 726 mmHg 42%
    02:00 +7°C° 0 mm 2 mps 726 mmHg 41%
    03:00 +7°C° 0 mm 2 mps 725 mmHg 40%
    04:00 +7°C° 0 mm 2 mps 725 mmHg 39%
    05:00 +7°C° 0 mm 2 mps 725 mmHg 38%
    06:00 +8°C° 0 mm 2 mps 725 mmHg 35%
    07:00 +10°C° 0 mm 2 mps 725 mmHg 31%
    08:00 +12°C° 0 mm 2 mps 725 mmHg 28%
    09:00 +15°C° 0 mm 2 mps 725 mmHg 26%
    10:00 +18°C° 0 mm 2 mps 725 mmHg 23%
    11:00 +20°C° 0 mm 2 mps 725 mmHg 20%
    12:00 +23°C° 0 mm 2 mps 724 mmHg 21%
    13:00 +24°C° 0 mm 2 mps 724 mmHg 22%
    14:00 +25°C° 0 mm 2 mps 723 mmHg 23%
    15:00 +24°C° 0 mm 2 mps 723 mmHg 26%
    16:00 +24°C° 0 mm 2 mps 722 mmHg 29%
    17:00 +23°C° 0 mm 2 mps 722 mmHg 32%
    18:00 +19°C° 0 mm 2 mps 722 mmHg 39%
    19:00 +16°C° 0 mm 1 mps 722 mmHg 47%
    20:00 +14°C° 0 mm 1 mps 722 mmHg 55%
    21:00 +13°C° 0 mm 1 mps 722 mmHg 57%
    22:00 +13°C° 0 mm 1 mps 722 mmHg 59%
    23:00 +13°C° 0 mm 1 mps 722 mmHg 61%

    29 September, Saturday

    Time Temperature Precipitation Wind Pressure Humidity
    00:00 +12°C° 0 mm 1 mps 722 mmHg 62%
    01:00 +12°C° 0 mm 1 mps 722 mmHg 63%
    02:00 +12°C° 0 mm 1 mps 722 mmHg 64%
    03:00 +12°C° 0 mm 1 mps 722 mmHg 65%
    04:00 +11°C° 0 mm 1 mps 721 mmHg 67%
    05:00 +11°C° 0 mm 1 mps 721 mmHg 68%
    06:00 +13°C° 0 mm 1 mps 722 mmHg 64%
    07:00 +14°C° 0 mm 1 mps 722 mmHg 59%
    08:00 +16°C° 0 mm 1 mps 722 mmHg 55%
    09:00 +19°C° 0 mm 1 mps 722 mmHg 50%
    10:00 +21°C° 0 mm 1 mps 722 mmHg 44%
    11:00 +23°C° 0 mm 1 mps 722 mmHg 39%
    12:00 +24°C° 0 mm 1 mps 722 mmHg 38%
    13:00 +24°C° 0 mm 2 mps 722 mmHg 38%
    14:00 +25°C° 0 mm 2 mps 721 mmHg 37%
    15:00 +24°C° 0 mm 2 mps 721 mmHg 39%
    16:00 +24°C° 0 mm 2 mps 721 mmHg 40%
    17:00 +23°C° 0 mm 2 mps 721 mmHg 42%
    18:00 +20°C° 0 mm 2 mps 722 mmHg 48%
    19:00 +18°C° 0 mm 2 mps 722 mmHg 54%
    20:00 +15°C° 0 mm 1 mps 722 mmHg 60%
    21:00 +15°C° 0 mm 1 mps 722 mmHg 62%
    22:00 +14°C° 0 mm 1 mps 722 mmHg 64%
    23:00 +13°C° 0 mm 1 mps 723 mmHg 66%
    Show more

    3.3.7123123